Location: Arbon
(43.0005°N, 0.7472°E)
Time: 22:28:03
(UTC+00:00)

Altair - Pass Details

Date: 29 November 2020
Orbit: 1501 x 1682 km, 47.2° (Epoch: 26 January)

Event Time Altitude Azimuth Distance (km) Brightness Sun altitude
Rises 22:15:03 0° 265° (W) 4,695 10.3 -61.5°
Enters shadow 22:17:01 - 266° (W) 4,059 9.9 -61.8°
Reaches altitude 10° 22:18:09 10° 267° (W) 3,695 - -62.0°
Maximum altitude 22:27:25 71° 352° (N) 1,582 - -63.2°
Drops below altitude 10° 22:36:35 10° 76° (ENE) 3,657 - -64.3°
Sets 22:39:38 0° 79° (ENE) 4,646 - -64.6°
